When you browse on this site, cookies collect data to enhance your experience and personalize the content and advertising you see.
Visit our Privacy Policy to learn more. By continuing to use the site, you agree to this use of cookies and data.
  • In Latvia
  • List of Countries
  • For 7 days
  • Water Temperature
  • Weather Map
  • Weather Widgets
  • user-avatar
    Login

    Hourly Weather La Rioja

    Today, 14 December, Saturday

    Time Temperature Precipitation Wind Pressure Humidity
    00:00 +26°C° 0 mm 2 mps 712 mmHg 45%
    01:00 +25°C° 0 mm 2 mps 712 mmHg 46%
    02:00 +25°C° 0 mm 2 mps 711 mmHg 52%
    03:00 +25°C° 0 mm 2 mps 711 mmHg 53%
    04:00 +24°C° 0 mm 2 mps 711 mmHg 54%
    05:00 +24°C° 0 mm 2 mps 711 mmHg 55%
    06:00 +25°C° 0 mm 2 mps 712 mmHg 51%
    07:00 +26°C° 0 mm 2 mps 712 mmHg 48%
    08:00 +28°C° 0 mm 3 mps 712 mmHg 49%
    09:00 +29°C° 0 mm 3 mps 712 mmHg 45%
    10:00 +31°C° 0 mm 3 mps 712 mmHg 41%
    11:00 +34°C° 0 mm 3 mps 711 mmHg 37%
    12:00 +35°C° 0 mm 3 mps 711 mmHg 35%
    13:00 +36°C° 0 mm 4 mps 710 mmHg 32%
    14:00 +37°C° 0 mm 4 mps 709 mmHg 30%
    15:00 +37°C° 0 mm 4 mps 708 mmHg 29%
    16:00 +37°C° 0 mm 3 mps 708 mmHg 28%
    17:00 +37°C° 0 mm 3 mps 707 mmHg 27%
    18:00 +35°C° 0.2 mm 3 mps 708 mmHg 31%
    19:00 +34°C° 0.2 mm 2 mps 708 mmHg 35%
    20:00 +31°C° 0.2 mm 2 mps 709 mmHg 38%
    21:00 +31°C° 0.3 mm 3 mps 709 mmHg 45%
    22:00 +30°C° 0.3 mm 3 mps 709 mmHg 52%
    23:00 +29°C° 0.3 mm 4 mps 710 mmHg 59%

    Tomorrow, 15 December, Sunday

    Time Temperature Precipitation Wind Pressure Humidity
    00:00 +28°C° 0.4 mm 4 mps 710 mmHg 64%
    01:00 +28°C° 0.4 mm 3 mps 710 mmHg 70%
    02:00 +27°C° 0.4 mm 3 mps 710 mmHg 75%
    03:00 +26°C° 0.5 mm 4 mps 711 mmHg 74%
    04:00 +25°C° 0.5 mm 4 mps 711 mmHg 72%
    05:00 +25°C° 0.5 mm 5 mps 712 mmHg 71%
    06:00 +26°C° 0 mm 5 mps 713 mmHg 62%
    07:00 +27°C° 0 mm 5 mps 713 mmHg 53%
    08:00 +28°C° 0 mm 5 mps 714 mmHg 44%
    09:00 +29°C° 0 mm 5 mps 714 mmHg 39%
    10:00 +32°C° 0 mm 6 mps 714 mmHg 33%
    11:00 +33°C° 0 mm 6 mps 714 mmHg 28%
    12:00 +34°C° 0 mm 6 mps 713 mmHg 26%
    13:00 +34°C° 0 mm 6 mps 712 mmHg 25%
    14:00 +35°C° 0 mm 6 mps 711 mmHg 23%
    15:00 +35°C° 0 mm 5 mps 711 mmHg 24%
    16:00 +35°C° 0 mm 4 mps 710 mmHg 24%
    17:00 +35°C° 0 mm 4 mps 710 mmHg 24%
    18:00 +34°C° 0 mm 3 mps 710 mmHg 26%
    19:00 +33°C° 0 mm 3 mps 710 mmHg 28%
    20:00 +31°C° 0 mm 2 mps 711 mmHg 30%
    21:00 +30°C° 0 mm 3 mps 711 mmHg 35%
    22:00 +29°C° 0 mm 3 mps 711 mmHg 40%
    23:00 +28°C° 0 mm 3 mps 711 mmHg 45%

    Day after tomorrow, 16 December, Monday

    Time Temperature Precipitation Wind Pressure Humidity
    00:00 +27°C° 0.1 mm 3 mps 711 mmHg 51%
    01:00 +26°C° 0.1 mm 3 mps 711 mmHg 58%
    02:00 +26°C° 0.1 mm 2 mps 711 mmHg 64%
    03:00 +25°C° 0.3 mm 2 mps 711 mmHg 67%
    04:00 +24°C° 0.3 mm 2 mps 711 mmHg 70%
    05:00 +24°C° 0.3 mm 2 mps 711 mmHg 73%
    06:00 +22°C° 0.8 mm 3 mps 712 mmHg 74%
    07:00 +21°C° 0.8 mm 5 mps 713 mmHg 74%
    08:00 +20°C° 0.8 mm 6 mps 714 mmHg 75%
    09:00 +19°C° 1.2 mm 6 mps 714 mmHg 79%
    10:00 +17°C° 1.2 mm 5 mps 715 mmHg 83%
    11:00 +16°C° 1.2 mm 5 mps 715 mmHg 88%
    12:00 +17°C° 0.8 mm 4 mps 715 mmHg 86%
    13:00 +17°C° 0.8 mm 4 mps 715 mmHg 83%
    14:00 +17°C° 0.8 mm 3 mps 715 mmHg 81%
    15:00 +18°C° 0 mm 3 mps 715 mmHg 72%
    16:00 +20°C° 0 mm 2 mps 715 mmHg 62%
    17:00 +21°C° 0 mm 2 mps 714 mmHg 53%
    18:00 +21°C° 0 mm 2 mps 715 mmHg 56%
    19:00 +22°C° 0 mm 1 mps 715 mmHg 59%
    20:00 +21°C° 0 mm 1 mps 715 mmHg 62%
    21:00 +21°C° 0 mm 1 mps 716 mmHg 63%
    22:00 +20°C° 0 mm 1 mps 716 mmHg 64%
    23:00 +20°C° 0 mm 1 mps 716 mmHg 65%

    17 December, Tuesday

    Time Temperature Precipitation Wind Pressure Humidity
    00:00 +20°C° 0 mm 1 mps 715 mmHg 66%
    01:00 +20°C° 0 mm 1 mps 715 mmHg 66%
    02:00 +19°C° 0 mm 1 mps 714 mmHg 66%
    03:00 +19°C° 0 mm 1 mps 714 mmHg 67%
    04:00 +19°C° 0 mm 1 mps 714 mmHg 67%
    05:00 +17°C° 0 mm 0 mps 714 mmHg 67%
    06:00 +20°C° 0 mm 1 mps 714 mmHg 59%
    07:00 +22°C° 0 mm 1 mps 715 mmHg 52%
    08:00 +24°C° 0 mm 1 mps 715 mmHg 44%
    09:00 +26°C° 0 mm 2 mps 715 mmHg 38%
    10:00 +28°C° 0 mm 3 mps 715 mmHg 32%
    11:00 +30°C° 0 mm 4 mps 714 mmHg 27%
    12:00 +32°C° 0 mm 4 mps 714 mmHg 24%
    13:00 +33°C° 0 mm 5 mps 713 mmHg 21%
    14:00 +34°C° 0 mm 5 mps 712 mmHg 18%
    15:00 +34°C° 0 mm 5 mps 711 mmHg 18%
    16:00 +35°C° 0 mm 5 mps 711 mmHg 17%
    17:00 +35°C° 0 mm 5 mps 710 mmHg 17%
    18:00 +33°C° 0 mm 5 mps 710 mmHg 20%
    19:00 +30°C° 0 mm 4 mps 710 mmHg 24%
    20:00 +29°C° 0 mm 4 mps 710 mmHg 28%
    21:00 +28°C° 0 mm 4 mps 711 mmHg 30%
    22:00 +27°C° 0 mm 3 mps 711 mmHg 31%
    23:00 +26°C° 0 mm 3 mps 711 mmHg 33%

    18 December, Wednesday

    Time Temperature Precipitation Wind Pressure Humidity
    00:00 +26°C° 0 mm 2 mps 711 mmHg 35%
    01:00 +25°C° 0 mm 2 mps 711 mmHg 37%
    02:00 +25°C° 0 mm 2 mps 710 mmHg 38%
    03:00 +24°C° 0 mm 2 mps 710 mmHg 39%
    04:00 +24°C° 0 mm 2 mps 710 mmHg 40%
    05:00 +23°C° 0 mm 2 mps 710 mmHg 41%
    06:00 +25°C° 0 mm 2 mps 710 mmHg 38%
    07:00 +26°C° 0 mm 2 mps 711 mmHg 35%
    08:00 +28°C° 0 mm 3 mps 711 mmHg 32%
    09:00 +29°C° 0 mm 3 mps 711 mmHg 30%
    10:00 +30°C° 0 mm 3 mps 711 mmHg 28%
    11:00 +32°C° 0 mm 2 mps 711 mmHg 26%
    12:00 +34°C° 0 mm 3 mps 710 mmHg 25%
    13:00 +35°C° 0 mm 3 mps 709 mmHg 24%
    14:00 +36°C° 0 mm 3 mps 709 mmHg 22%
    15:00 +36°C° 0 mm 4 mps 708 mmHg 23%
    16:00 +36°C° 0 mm 4 mps 708 mmHg 23%
    17:00 +37°C° 0 mm 5 mps 707 mmHg 24%
    18:00 +35°C° 0 mm 5 mps 707 mmHg 28%
    19:00 +33°C° 0 mm 4 mps 707 mmHg 33%
    20:00 +32°C° 0 mm 4 mps 707 mmHg 38%
    21:00 +30°C° 0 mm 4 mps 708 mmHg 39%
    22:00 +30°C° 0 mm 3 mps 708 mmHg 41%
    23:00 +29°C° 0 mm 2 mps 709 mmHg 43%

    19 December, Thursday

    Time Temperature Precipitation Wind Pressure Humidity
    00:00 +28°C° 0 mm 2 mps 709 mmHg 44%
    01:00 +28°C° 0 mm 2 mps 708 mmHg 45%
    02:00 +27°C° 0 mm 3 mps 708 mmHg 46%
    03:00 +27°C° 0 mm 3 mps 708 mmHg 48%
    04:00 +26°C° 0 mm 3 mps 708 mmHg 50%
    05:00 +26°C° 0 mm 3 mps 708 mmHg 51%
    06:00 +27°C° 0 mm 4 mps 708 mmHg 48%
    07:00 +28°C° 0 mm 4 mps 709 mmHg 44%
    08:00 +29°C° 0 mm 4 mps 709 mmHg 40%
    09:00 +30°C° 0 mm 4 mps 709 mmHg 37%
    10:00 +33°C° 0 mm 4 mps 709 mmHg 34%
    11:00 +34°C° 0 mm 4 mps 709 mmHg 32%
    12:00 +35°C° 0 mm 4 mps 708 mmHg 30%
    13:00 +36°C° 0 mm 4 mps 708 mmHg 29%
    14:00 +37°C° 0 mm 4 mps 707 mmHg 27%
    15:00 +37°C° 0 mm 3 mps 707 mmHg 26%
    16:00 +37°C° 0 mm 2 mps 706 mmHg 25%
    17:00 +38°C° 0 mm 2 mps 706 mmHg 23%
    18:00 +37°C° 0 mm 2 mps 706 mmHg 25%
    19:00 +36°C° 0 mm 2 mps 707 mmHg 26%
    20:00 +35°C° 0 mm 2 mps 707 mmHg 28%
    21:00 +33°C° 0 mm 1 mps 708 mmHg 30%
    22:00 +33°C° 0 mm 1 mps 708 mmHg 32%
    23:00 +30°C° 0 mm 0 mps 708 mmHg 34%
    Show more